User: anonymous   Login
Location: Caltech
(34.1382°N, 118.1253°W)
Time: 12:41:31
(UTC-07:00)
Language:

Cosmos 1626 - Orbit

View from above orbital plane
View from above orbital plane
View from above satellite
View from above satellite

Ground track
Ground track

The orbit data is extracted from the following two-line orbital elements,

1 15494U 85009A   14298.09232302  .00008326  00000-0  42988-3 0  6967
2 15494 082.4797 133.0226 0002603 154.8870 351.6497 15.16177743621997
Epoch (UTC): 25 October 2014 02:12:56
Eccentricity: 0.0002603
inclination: 82.4797°
perigee height: 515 km
apogee height: 519 km
right ascension of ascending node: 133.0226°
argument of perigee: 154.8870°
revolutions per day: 15.16177743
mean anomaly at epoch: 351.6497°
orbit number at epoch: 62199

The dashed part of the orbit path shows where the satellite is in the earth's shadow,  

DLR